Wind_Speed
38 38 36 34 36 38 38 37 35 35 37 38 37 35 34 36 34 33 33 33 32 32 31 31 31 31 30 30 30 30 30 30 29 29 29 29 29 29 30 31 31 32 33 35
39 37 33 37 39 39 39 38 36 36 39 40 38 36 34 35 35 34 33 33 33 33 32 32 32 32 32 31 31 31 31 31 30 30 30 30 30 30 31 32 33 34 35 36
38 34 35 38 39 39 38 38 37 37 39 41 41 37 33 34 36 35 34 34 34 34 34 34 33 33 33 32 32 32 32 31 31 31 31 31 31 32 33 34 35 36 37 38
40 37 37 38 37 38 37 36 38 38 40 40 41 40 31 32 34 35 34 34 34 34 34 34 34 34 34 33 33 33 32 32 31 31 32 32 33 34 35 36 37 38 38 39
39 36 36 37 36 37 37 37 39 39 40 40 38 42 33 31 32 34 34 34 34 35 34 34 34 34 34 34 33 33 33 32 32 32 33 34 35 36 36 37 38 39 40 41
39 38 38 37 36 38 38 38 39 39 40 41 36 40 38 31 32 33 34 34 35 35 34 34 34 34 33 33 33 33 33 33 33 34 34 35 36 37 38 39 40 41 42 43
37 37 36 35 36 36 37 37 39 40 41 41 38 38 37 32 31 32 33 34 34 34 33 32 33 33 33 32 33 33 33 34 34 35 35 36 37 38 39 40 41 43 44 44
36 36 35 34 34 35 36 37 39 41 41 40 39 38 33 31 30 30 31 32 32 32 32 32 32 32 32 32 32 33 33 34 35 36 37 37 38 39 41 42 43 44 45 45
35 35 35 35 34 36 37 37 37 40 42 41 39 37 32 29 29 30 30 30 30 30 30 31 31 31 32 32 32 33 34 34 36 37 38 38 40 41 43 44 45 46 46 47
35 35 34 35 36 37 37 37 37 39 41 41 38 33 30 28 29 29 28 29 29 29 30 30 30 30 31 32 33 34 35 36 36 37 39 40 42 43 44 45 46 47 47 48
36 36 36 35 36 35 36 37 38 39 40 40 38 33 29 27 26 27 27 28 28 28 29 30 30 31 32 33 34 34 35 36 37 39 40 42 43 44 45 46 47 47 48 49
34 36 36 35 35 35 37 36 37 38 38 38 38 34 29 28 27 27 28 28 29 29 30 30 31 31 32 33 34 35 36 38 39 40 42 43 44 45 46 47 48 49 50 51
35 37 36 35 35 34 34 34 34 36 37 38 38 33 28 27 28 28 29 29 30 30 30 30 31 31 33 34 35 36 37 39 41 42 43 44 45 46 47 48 49 50 51 52
37 37 35 33 31 31 31 32 33 35 36 36 34 31 27 27 29 30 31 31 31 31 32 32 32 33 34 35 36 37 39 41 41 42 43 44 46 47 48 49 50 52 53 54
37 37 34 32 31 31 32 31 32 33 33 34 31 30 26 27 30 32 32 32 32 32 32 33 33 34 35 37 38 39 40 41 42 43 45 46 47 48 49 51 52 53 54 54
36 35 33 32 31 31 32 32 32 32 32 32 31 28 25 29 32 32 32 32 32 33 33 34 34 35 36 37 38 39 40 41 43 45 46 47 48 49 50 51 52 53 54 55
35 34 33 32 31 33 33 29 30 30 30 30 30 27 27 31 32 32 33 33 34 35 35 35 35 36 37 38 39 40 41 43 44 46 47 48 49 50 51 52 53 54 55 55
37 35 34 33 33 35 29 27 28 29 29 29 29 28 30 32 32 32 33 34 34 34 34 35 36 37 38 39 40 41 43 44 45 46 47 49 50 51 52 53 54 54 55 56
37 36 35 35 35 34 29 26 25 28 27 27 29 29 30 31 31 31 32 33 33 34 34 35 36 38 39 40 41 42 43 45 46 47 48 50 51 52 52 53 54 54 55 56
38 37 36 36 35 33 27 25 26 29 28 25 29 29 30 31 31 31 31 32 33 34 36 37 38 39 39 40 42 43 44 45 47 48 49 50 51 52 52 53 54 55 57 58
38 37 36 35 34 32 28 26 27 28 25 26 28 29 30 30 31 31 31 32 34 35 36 37 38 39 40 42 43 44 45 46 47 48 49 50 51 52 53 54 55 57 59 60
37 37 36 35 35 31 28 28 28 27 28 29 29 29 30 30 31 32 33 34 35 36 37 38 39 40 41 43 44 45 46 47 47 48 49 50 51 53 54 55 57 59 61 63
37 36 35 35 33 30 30 31 30 30 30 30 31 31 31 32 33 33 34 35 36 37 38 39 40 42 43 44 45 46 46 47 47 48 50 51 52 54 55 57 59 61 63 65
37 36 36 36 34 33 32 32 32 32 32 31 31 32 32 33 34 35 35 36 37 38 39 40 41 42 43 44 45 46 46 47 48 49 50 52 53 55 57 59 61 63 65 68
37 37 36 36 34 34 34 33 33 34 34 33 33 34 34 34 35 36 36 37 38 39 39 40 41 43 43 44 44 45 46 47 48 50 52 53 55 57 59 61 63 66 68 71
38 37 36 36 35 36 36 35 35 35 35 35 35 35 35 35 36 36 37 38 38 39 40 41 42 43 43 44 45 46 47 48 49 51 53 55 57 59 61 63 65 68 70 73
Wind_Direction
243 245 246 248 249 249 249 251 252 255 257 258 259 260 261 265 267 268 270 272 274 275 275 276 277 277 276 277 276 275 274 275 276 276 276 278 280 282 284 286 288 290 292 293
243 245 246 246 247 249 251 252 254 255 258 259 259 260 261 264 267 268 269 271 273 273 274 275 276 276 275 275 274 274 273 274 274 274 275 276 279 281 284 287 289 291 292 293
243 243 243 245 247 250 252 254 255 256 257 260 262 259 261 263 266 267 268 269 270 272 273 274 275 274 274 273 273 272 272 272 272 273 274 276 279 282 284 287 290 291 293 294
241 240 242 246 248 251 253 255 256 257 258 260 263 264 259 263 265 266 266 267 269 270 271 273 273 273 273 273 272 271 270 270 271 272 274 277 280 283 285 288 291 292 293 295
241 242 244 247 249 251 253 254 256 258 260 261 263 267 263 262 264 264 265 267 268 269 270 270 271 272 272 272 271 270 269 269 271 272 274 278 281 284 287 289 291 293 294 295
239 240 243 246 246 249 251 254 257 259 260 262 264 268 269 267 264 263 264 265 267 268 269 270 270 270 270 269 269 268 268 269 271 273 276 279 282 285 287 289 291 293 295 296
242 243 245 246 247 249 252 256 259 260 261 264 265 267 271 272 267 264 264 265 266 267 268 269 268 268 267 267 267 268 269 270 273 275 278 281 283 285 288 290 292 294 295 297
241 242 244 246 248 250 252 254 258 261 263 264 265 267 270 272 269 267 266 265 266 266 267 267 265 265 266 266 267 268 269 271 274 277 280 282 284 286 289 291 293 294 296 297
241 243 242 245 246 248 250 254 258 262 264 266 267 269 270 271 269 267 266 265 265 265 265 264 264 264 265 265 266 268 271 273 276 279 281 283 286 288 290 292 294 295 297 297
239 241 240 242 245 247 251 253 256 260 265 268 269 270 272 268 266 266 265 265 265 263 263 262 262 263 264 265 267 270 273 275 278 281 283 286 288 290 292 293 295 296 297 298
238 242 242 243 245 248 251 253 256 259 263 267 270 270 271 270 267 264 263 263 263 262 261 261 262 263 265 267 269 272 274 277 280 283 285 287 289 292 293 294 296 297 298 299
237 241 244 244 244 246 250 253 255 258 262 265 267 268 270 269 266 263 262 262 261 261 261 261 263 265 267 269 271 273 276 279 282 285 287 289 291 292 294 295 296 297 298 299
236 240 243 244 245 248 252 255 258 260 261 263 266 269 270 268 264 262 261 261 261 261 262 262 264 267 269 272 274 277 279 281 284 286 288 290 292 293 295 296 297 298 299 299
237 241 244 247 250 251 252 254 256 258 261 263 265 268 267 265 262 261 261 261 261 262 263 264 266 269 272 274 277 279 281 283 286 288 290 292 293 295 296 297 298 299 299 300
238 241 244 245 246 248 250 253 254 256 259 262 264 264 264 261 261 261 263 263 262 263 265 267 268 271 274 276 278 280 282 285 287 290 291 293 294 295 297 298 299 299 300 300
238 240 242 244 246 249 250 252 255 256 259 262 264 264 263 261 261 263 265 265 266 266 268 269 272 274 276 278 280 282 284 287 289 291 293 294 295 297 298 299 299 299 300 301
237 239 242 244 247 249 250 254 257 258 260 261 264 265 262 262 262 264 266 267 269 270 271 273 275 277 279 281 283 285 287 289 291 292 294 295 297 298 298 299 299 300 301 302
234 237 240 243 245 249 254 254 256 257 257 259 263 264 264 263 263 265 267 270 272 273 274 276 278 280 282 284 285 288 289 291 292 294 295 296 297 298 298 299 300 300 301 302
233 236 240 244 248 252 253 255 257 257 256 258 262 264 265 265 266 266 268 271 272 273 275 278 280 282 285 286 288 290 291 292 294 295 296 296 297 298 299 299 300 301 302 303
233 236 241 246 250 253 254 255 256 259 259 261 263 263 264 266 267 268 269 272 274 276 278 280 283 285 287 288 290 292 293 294 295 296 296 297 298 299 299 300 301 302 303 304
235 239 243 248 252 254 256 258 258 260 263 259 259 261 263 266 268 270 272 275 277 279 281 282 284 286 288 290 292 293 294 295 296 296 297 298 299 300 300 301 302 303 304 305
235 240 244 248 251 255 259 261 261 262 260 260 261 262 265 268 270 273 275 277 278 280 282 284 286 288 290 291 292 293 294 295 296 297 298 299 300 301 301 302 303 304 305 305
236 240 246 249 254 257 257 259 260 260 261 262 264 264 266 269 272 274 277 279 280 282 283 285 287 289 291 292 293 294 295 296 297 297 298 299 301 302 302 303 304 305 305 306
237 241 245 248 251 254 256 257 259 261 262 264 265 267 268 271 274 276 278 280 282 283 285 287 289 290 292 293 294 295 296 297 297 298 299 301 302 303 303 304 305 306 306 307
239 241 244 249 251 253 255 257 259 260 262 265 268 269 271 274 277 278 280 281 283 285 287 289 290 292 293 294 295 296 297 298 298 300 301 302 303 303 304 305 306 307 308 308
238 241 245 250 252 254 255 257 257 259 263 266 270 272 275 277 279 280 282 283 285 287 288 290 291 293 294 295 295 296 297 299 300 301 302 303 303 304 305 306 307 308 308 309
Height
5776 5780 5784 5788 5788 5790 5792 5794 5797 5799 5798 5799 5801 5804 5806 5805 5807 5808 5808 5808 5808 5807 5807 5807 5806 5806 5805 5804 5803 5802 5801 5800 5799 5798 5797 5796 5795 5793 5792 5790 5788 5786 5784 5781
5769 5774 5779 5778 5779 5782 5784 5787 5790 5791 5790 5791 5793 5796 5799 5799 5799 5800 5801 5801 5800 5800 5800 5800 5800 5799 5799 5798 5797 5796 5795 5794 5793 5792 5791 5790 5788 5787 5785 5783 5781 5779 5777 5774
5761 5768 5768 5769 5772 5774 5777 5780 5781 5782 5782 5782 5784 5788 5792 5793 5792 5793 5794 5793 5793 5793 5793 5793 5792 5792 5792 5791 5790 5789 5788 5787 5786 5785 5785 5783 5782 5780 5779 5777 5774 5772 5769 5766
5752 5758 5760 5762 5765 5767 5770 5772 5772 5773 5774 5776 5777 5777 5787 5786 5785 5785 5785 5785 5786 5786 5786 5785 5785 5785 5784 5784 5783 5782 5781 5780 5780 5779 5778 5776 5775 5773 5771 5769 5766 5764 5761 5758
5746 5751 5753 5755 5759 5760 5762 5763 5764 5765 5766 5768 5770 5768 5777 5779 5778 5778 5777 5778 5778 5778 5778 5778 5778 5778 5777 5777 5776 5775 5774 5774 5773 5772 5771 5769 5768 5766 5764 5761 5758 5756 5753 5750
5738 5742 5744 5748 5751 5752 5754 5756 5757 5757 5758 5760 5764 5762 5765 5771 5771 5770 5770 5770 5770 5770 5770 5770 5770 5770 5770 5769 5769 5768 5767 5767 5766 5764 5763 5762 5760 5758 5756 5753 5750 5747 5744 5741
5731 5734 5738 5741 5744 5746 5747 5749 5749 5749 5750 5753 5755 5755 5758 5761 5762 5762 5762 5762 5762 5762 5762 5762 5763 5762 5762 5762 5761 5761 5760 5759 5758 5757 5756 5754 5752 5750 5747 5745 5742 5738 5735 5731
5723 5727 5731 5734 5737 5738 5740 5741 5742 5743 5743 5744 5746 5747 5753 5753 5753 5753 5753 5754 5754 5754 5754 5755 5755 5755 5755 5755 5754 5754 5753 5752 5751 5750 5748 5746 5744 5742 5739 5736 5733 5729 5725 5722
5716 5720 5724 5726 5729 5730 5732 5733 5735 5735 5734 5735 5737 5741 5745 5746 5745 5745 5745 5746 5746 5746 5747 5747 5747 5748 5747 5747 5747 5746 5746 5745 5743 5742 5740 5738 5736 5733 5730 5727 5723 5719 5716 5712
5708 5712 5715 5718 5720 5722 5724 5726 5727 5726 5726 5727 5730 5733 5737 5738 5737 5738 5738 5738 5738 5739 5739 5740 5740 5740 5740 5740 5739 5739 5738 5737 5735 5734 5732 5729 5727 5724 5720 5717 5713 5709 5705 5701
5700 5704 5707 5710 5712 5715 5717 5718 5719 5720 5720 5720 5722 5728 5729 5730 5730 5730 5731 5731 5731 5732 5732 5732 5732 5733 5733 5732 5732 5731 5730 5728 5727 5725 5723 5720 5717 5714 5710 5707 5703 5698 5694 5690
5692 5695 5698 5702 5705 5706 5708 5710 5712 5713 5713 5713 5714 5721 5722 5722 5722 5723 5723 5724 5724 5724 5725 5725 5725 5725 5725 5724 5724 5723 5721 5720 5718 5716 5713 5710 5707 5704 5700 5696 5692 5687 5683 5678
5684 5686 5690 5693 5698 5700 5701 5703 5704 5705 5706 5705 5706 5713 5714 5715 5714 5715 5716 5716 5717 5717 5717 5717 5717 5717 5717 5716 5715 5714 5713 5711 5709 5706 5703 5700 5697 5693 5689 5685 5680 5676 5671 5666
5676 5679 5684 5688 5691 5692 5694 5696 5696 5697 5697 5698 5700 5704 5707 5706 5706 5707 5707 5708 5709 5710 5710 5710 5710 5709 5709 5708 5707 5705 5703 5701 5699 5696 5693 5690 5686 5682 5678 5673 5669 5664 5658 5653
5668 5672 5676 5679 5682 5684 5686 5687 5688 5688 5690 5691 5694 5696 5699 5698 5698 5698 5699 5700 5701 5702 5702 5702 5702 5701 5701 5699 5698 5696 5694 5691 5689 5686 5682 5679 5675 5670 5666 5661 5656 5651 5646 5640
5660 5665 5668 5671 5674 5675 5677 5679 5680 5682 5683 5684 5686 5689 5691 5690 5690 5691 5692 5692 5693 5694 5694 5694 5693 5693 5691 5690 5688 5686 5684 5681 5678 5675 5671 5667 5663 5659 5654 5649 5644 5638 5633 5627
5653 5657 5661 5664 5666 5666 5669 5674 5674 5676 5677 5678 5679 5683 5683 5682 5683 5683 5684 5685 5685 5685 5685 5685 5684 5683 5682 5680 5678 5676 5674 5671 5668 5664 5660 5656 5652 5647 5642 5637 5631 5626 5620 5614
5645 5649 5653 5656 5658 5659 5667 5667 5668 5669 5670 5672 5673 5674 5675 5675 5675 5676 5676 5676 5677 5676 5676 5676 5675 5674 5672 5670 5668 5666 5663 5660 5656 5653 5648 5644 5639 5634 5629 5624 5619 5613 5607 5601
5638 5642 5645 5647 5649 5652 5658 5660 5661 5661 5663 5665 5665 5666 5666 5666 5667 5668 5668 5668 5668 5668 5667 5666 5665 5664 5662 5660 5658 5655 5652 5649 5645 5641 5637 5632 5627 5622 5617 5611 5605 5600 5594 5587
5630 5634 5638 5640 5641 5644 5652 5654 5654 5654 5656 5659 5658 5658 5658 5658 5659 5661 5660 5659 5659 5659 5658 5657 5656 5654 5652 5650 5647 5644 5641 5637 5633 5629 5624 5619 5614 5609 5604 5598 5592 5586 5580 5574
5623 5626 5629 5632 5634 5638 5644 5646 5647 5649 5652 5651 5650 5650 5651 5651 5652 5652 5652 5651 5650 5650 5649 5647 5646 5644 5642 5639 5636 5633 5629 5625 5621 5617 5612 5607 5602 5596 5591 5585 5579 5572 5566 5560
5615 5619 5622 5625 5627 5634 5637 5637 5639 5641 5641 5641 5642 5643 5643 5644 5643 5643 5643 5642 5641 5640 5639 5637 5636 5633 5631 5628 5625 5621 5618 5613 5609 5604 5599 5594 5589 5583 5577 5571 5565 5558 5551 5544
5608 5613 5616 5619 5624 5627 5628 5629 5630 5631 5633 5633 5634 5635 5635 5635 5635 5634 5634 5633 5632 5631 5629 5627 5625 5623 5620 5617 5613 5610 5606 5601 5597 5592 5587 5581 5576 5570 5563 5557 5550 5543 5535 5527
5600 5604 5607 5611 5614 5617 5619 5620 5622 5623 5624 5624 5625 5626 5626 5626 5626 5626 5625 5624 5622 5621 5619 5617 5615 5612 5609 5605 5602 5598 5594 5589 5585 5579 5574 5568 5563 5556 5550 5542 5535 5527 5519 5510
5592 5596 5599 5602 5606 5608 5610 5611 5613 5614 5615 5616 5617 5617 5617 5617 5617 5616 5615 5614 5612 5611 5609 5606 5604 5600 5597 5593 5590 5586 5582 5577 5572 5567 5561 5555 5549 5543 5536 5528 5520 5512 5503 5492
5584 5588 5591 5595 5598 5600 5601 5603 5604 5605 5606 5607 5608 5608 5608 5608 5607 5606 5605 5604 5602 5600 5598 5595 5592 5589 5586 5582 5578 5574 5569 5565 5560 5554 5548 5542 5535 5528 5521 5513 5506 5496 5486 5476